Time,TemperatureF,DewpointF,PressureIn,WindDirection,WindDirectionDegrees,WindSpeedMPH,WindSpeedGustMPH,Humidity,HourlyPrecipIn,Conditions,Clouds,dailyrainin,SolarRadiationWatts/m^2,SoftwareType,DateUTC
2013-08-06 00:02:00,75.9,73.0,29.97,SW,218,0.0,2.0,90,0.00,,,0.00,0,weatherlink.com 1.10,2013-08-06 04:02:00,
2013-08-06 00:17:00,76.0,73.0,29.97,SW,222,0.0,3.0,90,0.00,,,0.00,0,weatherlink.com 1.10,2013-08-06 04:17:00,
2013-08-06 00:32:00,76.1,73.0,29.96,SSW,202,0.0,3.0,90,0.00,,,0.00,0,weatherlink.com 1.10,2013-08-06 04:32:00,
2013-08-06 00:47:00,76.2,73.0,29.96,SSW,210,1.0,3.0,90,0.00,,,0.00,0,weatherlink.com 1.10,2013-08-06 04:47:00,
2013-08-06 01:02:00,76.3,74.0,29.96,WSW,240,0.0,2.0,91,0.00,,,0.00,0,weatherlink.com 1.10,2013-08-06 05:02:00,
2013-08-06 01:17:00,76.4,74.0,29.95,SW,232,1.0,3.0,91,0.00,,,0.00,0,weatherlink.com 1.10,2013-08-06 05:17:00,
2013-08-06 01:32:00,76.4,74.0,29.94,SW,230,0.0,2.0,91,0.00,,,0.00,0,weatherlink.com 1.10,2013-08-06 05:32:00,
2013-08-06 01:47:00,76.4,74.0,29.93,SW,230,0.0,1.0,91,0.00,,,0.00,0,weatherlink.com 1.10,2013-08-06 05:47:00,
2013-08-06 02:02:00,76.3,74.0,29.93,SW,230,0.0,1.0,91,0.00,,,0.00,0,weatherlink.com 1.10,2013-08-06 06:02:00,
2013-08-06 02:17:00,76.2,74.0,29.92,SW,230,0.0,0.0,91,0.00,,,0.00,0,weatherlink.com 1.10,2013-08-06 06:17:00,
2013-08-06 02:32:00,76.0,73.0,29.93,SW,230,0.0,0.0,91,0.00,,,0.00,0,weatherlink.com 1.10,2013-08-06 06:32:00,
2013-08-06 02:47:00,76.1,74.0,29.93,SW,230,0.0,0.0,92,0.00,,,0.00,0,weatherlink.com 1.10,2013-08-06 06:47:00,
2013-08-06 03:02:00,76.1,74.0,29.93,SW,230,0.0,0.0,92,0.00,,,0.00,0,weatherlink.com 1.10,2013-08-06 07:02:00,
2013-08-06 03:17:00,76.3,74.0,29.91,SW,230,0.0,0.0,92,0.00,,,0.00,0,weatherlink.com 1.10,2013-08-06 07:17:00,
2013-08-06 03:32:00,76.3,74.0,29.91,SW,230,0.0,1.0,92,0.00,,,0.00,0,weatherlink.com 1.10,2013-08-06 07:32:00,
2013-08-06 03:47:00,76.3,74.0,29.91,SW,230,0.0,0.0,92,0.00,,,0.00,0,weatherlink.com 1.10,2013-08-06 07:47:00,
2013-08-06 04:02:00,76.4,74.0,29.91,SW,230,0.0,0.0,93,0.00,,,0.00,0,weatherlink.com 1.10,2013-08-06 08:02:00,
2013-08-06 04:17:00,76.4,74.0,29.91,SW,230,0.0,0.0,92,0.00,,,0.00,0,weatherlink.com 1.10,2013-08-06 08:17:00,
2013-08-06 04:32:00,76.3,74.0,29.91,SW,230,0.0,0.0,93,0.00,,,0.00,0,weatherlink.com 1.10,2013-08-06 08:32:00,
2013-08-06 04:47:00,76.4,74.0,29.91,SW,230,0.0,0.0,93,0.00,,,0.00,0,weatherlink.com 1.10,2013-08-06 08:47:00,
2013-08-06 05:02:00,76.3,74.0,29.90,South,184,0.0,1.0,93,0.00,,,0.00,0,weatherlink.com 1.10,2013-08-06 09:02:00,
2013-08-06 05:17:00,75.8,74.0,29.90,South,184,0.0,0.0,93,0.00,,,0.00,0,weatherlink.com 1.10,2013-08-06 09:17:00,
2013-08-06 05:32:00,75.8,74.0,29.90,South,184,0.0,0.0,93,0.00,,,0.00,0,weatherlink.com 1.10,2013-08-06 09:32:00,
2013-08-06 05:48:00,75.9,74.0,29.90,South,184,0.0,0.0,93,0.00,,,0.00,0,weatherlink.com 1.10,2013-08-06 09:48:00,
2013-08-06 06:03:00,75.7,74.0,29.90,South,184,0.0,0.0,93,0.00,,,0.00,0,weatherlink.com 1.10,2013-08-06 10:03:00,
2013-08-06 06:18:00,75.6,74.0,29.90,South,184,0.0,0.0,93,0.00,,,0.00,0,weatherlink.com 1.10,2013-08-06 10:18:00,
2013-08-06 06:33:00,75.4,73.0,29.90,South,184,0.0,0.0,93,0.00,,,0.00,0,weatherlink.com 1.10,2013-08-06 10:33:00,
2013-08-06 06:48:00,75.5,73.0,29.90,South,184,0.0,0.0,93,0.00,,,0.00,0,weatherlink.com 1.10,2013-08-06 10:48:00,
2013-08-06 07:03:00,75.5,74.0,29.90,South,184,0.0,0.0,94,0.00,,,0.00,7,weatherlink.com 1.10,2013-08-06 11:03:00,
2013-08-06 07:18:00,75.4,74.0,29.91,South,184,1.0,1.0,94,0.00,,,0.00,14,weatherlink.com 1.10,2013-08-06 11:18:00,
2013-08-06 07:33:00,75.5,74.0,29.92,South,184,0.0,0.0,94,0.00,,,0.00,72,weatherlink.com 1.10,2013-08-06 11:33:00,
2013-08-06 08:03:00,77.7,76.0,29.94,South,184,0.0,1.0,94,0.00,,,0.00,155,weatherlink.com 1.10,2013-08-06 12:03:00,
2013-08-06 08:18:00,78.5,76.0,29.94,South,184,0.0,0.0,93,0.00,,,0.00,204,weatherlink.com 1.10,2013-08-06 12:18:00,
2013-08-06 08:33:00,79.1,77.0,29.95,South,184,0.0,1.0,93,0.00,,,0.00,255,weatherlink.com 1.10,2013-08-06 12:33:00,
2013-08-06 08:48:00,80.7,78.0,29.95,South,184,0.0,1.0,90,0.00,,,0.00,323,weatherlink.com 1.10,2013-08-06 12:48:00,
2013-08-06 09:03:00,82.5,78.0,29.95,SW,222,0.0,0.0,87,0.00,,,0.00,378,weatherlink.com 1.10,2013-08-06 13:03:00,
2013-08-06 09:18:00,84.0,78.0,29.95,SW,222,0.0,1.0,83,0.00,,,0.00,427,weatherlink.com 1.10,2013-08-06 13:18:00,
2013-08-06 09:33:00,85.3,78.0,29.95,SW,222,0.0,1.0,79,0.00,,,0.00,490,weatherlink.com 1.10,2013-08-06 13:33:00,
2013-08-06 09:48:00,85.4,77.0,29.95,WSW,245,0.0,2.0,77,0.00,,,0.00,570,weatherlink.com 1.10,2013-08-06 13:48:00,
2013-08-06 10:03:00,84.5,77.0,29.96,East,98,1.0,3.0,79,0.00,,,0.00,668,weatherlink.com 1.10,2013-08-06 14:03:00,
2013-08-06 10:18:00,84.1,77.0,29.96,East,90,1.0,4.0,79,0.00,,,0.00,246,weatherlink.com 1.10,2013-08-06 14:18:00,
2013-08-06 10:33:00,86.0,78.0,29.96,ESE,115,2.0,6.0,76,0.00,,,0.00,701,weatherlink.com 1.10,2013-08-06 14:33:00,
2013-08-06 10:49:00,85.9,78.0,29.96,ENE,68,0.0,4.0,77,0.00,,,0.00,809,weatherlink.com 1.10,2013-08-06 14:49:00,
2013-08-06 11:04:00,86.7,78.0,29.96,East,96,3.0,4.0,74,0.00,,,0.00,842,weatherlink.com 1.10,2013-08-06 15:04:00,
2013-08-06 11:19:00,86.1,77.0,29.96,SE,126,3.0,7.0,74,0.00,,,0.00,798,weatherlink.com 1.10,2013-08-06 15:19:00,
2013-08-06 11:34:00,85.8,77.0,29.96,ENE,69,0.0,6.0,74,0.00,,,0.00,847,weatherlink.com 1.10,2013-08-06 15:34:00,
2013-08-06 11:49:00,87.5,77.0,29.96,ESE,109,2.0,4.0,71,0.00,,,0.00,925,weatherlink.com 1.10,2013-08-06 15:49:00,
2013-08-06 12:04:00,88.1,77.0,29.96,NE,56,2.0,4.0,70,0.00,,,0.00,580,weatherlink.com 1.10,2013-08-06 16:04:00,
2013-08-06 12:19:00,88.2,77.0,29.95,SSE,151,1.0,4.0,70,0.00,,,0.00,991,weatherlink.com 1.10,2013-08-06 16:19:00,
2013-08-06 12:33:00,87.4,77.0,29.95,ESE,116,4.0,6.0,72,0.00,,,0.00,979,weatherlink.com 1.10,2013-08-06 16:33:00,
2013-08-06 12:49:00,88.3,77.0,29.95,East,96,2.0,4.0,70,0.00,,,0.00,926,weatherlink.com 1.10,2013-08-06 16:49:00,
2013-08-06 13:05:00,88.6,77.0,29.94,East,84,2.0,7.0,69,0.00,,,0.00,1063,weatherlink.com 1.10,2013-08-06 17:05:00,
2013-08-06 13:19:00,87.5,78.0,29.93,East,90,2.0,8.0,73,0.00,,,0.00,940,weatherlink.com 1.10,2013-08-06 17:19:00,
2013-08-06 13:35:00,88.2,78.0,29.93,ESE,117,2.0,6.0,72,0.00,,,0.00,1005,weatherlink.com 1.10,2013-08-06 17:35:00,
2013-08-06 13:49:00,88.7,79.0,29.92,East,86,2.0,5.0,72,0.00,,,0.00,970,weatherlink.com 1.10,2013-08-06 17:49:00,
2013-08-06 14:05:00,89.0,78.0,29.92,ESE,103,4.0,7.0,71,0.00,,,0.00,993,weatherlink.com 1.10,2013-08-06 18:05:00,
2013-08-06 14:19:00,88.7,78.0,29.92,ESE,121,1.0,7.0,71,0.00,,,0.00,919,weatherlink.com 1.10,2013-08-06 18:19:00,
2013-08-06 14:34:00,90.3,79.0,29.92,WNW,295,2.0,5.0,70,0.00,,,0.00,970,weatherlink.com 1.10,2013-08-06 18:34:00,
2013-08-06 14:50:00,88.6,78.0,29.92,ESE,123,2.0,7.0,71,0.00,,,0.00,867,weatherlink.com 1.10,2013-08-06 18:50:00,
2013-08-06 15:04:00,88.2,79.0,29.91,East,93,4.0,8.0,74,0.00,,,0.00,870,weatherlink.com 1.10,2013-08-06 19:04:00,
2013-08-06 15:20:00,87.9,78.0,29.91,East,89,5.0,9.0,73,0.00,,,0.00,803,weatherlink.com 1.10,2013-08-06 19:20:00,
2013-08-06 15:34:00,88.6,78.0,29.91,ESE,113,3.0,7.0,70,0.00,,,0.00,788,weatherlink.com 1.10,2013-08-06 19:34:00,
2013-08-06 15:50:00,89.3,78.0,29.91,SSW,194,2.0,7.0,70,0.00,,,0.00,679,weatherlink.com 1.10,2013-08-06 19:50:00,
2013-08-06 16:06:00,88.8,79.0,29.90,South,184,2.0,7.0,72,0.00,,,0.00,680,weatherlink.com 1.10,2013-08-06 20:06:00,
2013-08-06 16:20:00,88.0,78.0,29.90,East,100,6.0,11.0,72,0.00,,,0.00,596,weatherlink.com 1.10,2013-08-06 20:20:00,
2013-08-06 16:36:00,88.1,78.0,29.90,ESE,109,2.0,7.0,72,0.00,,,0.00,422,weatherlink.com 1.10,2013-08-06 20:36:00,
2013-08-06 16:50:00,87.7,78.0,29.90,SE,132,3.0,8.0,73,0.00,,,0.00,439,weatherlink.com 1.10,2013-08-06 20:50:00,
2013-08-06 17:06:00,87.4,77.0,29.90,SE,138,5.0,8.0,71,0.00,,,0.00,406,weatherlink.com 1.10,2013-08-06 21:06:00,
2013-08-06 17:20:00,87.3,77.0,29.89,ESE,110,4.0,8.0,72,0.00,,,0.00,281,weatherlink.com 1.10,2013-08-06 21:20:00,
2013-08-06 17:35:00,86.7,77.0,29.89,East,89,2.0,7.0,72,0.00,,,0.00,113,weatherlink.com 1.10,2013-08-06 21:35:00,
2013-08-06 17:51:00,86.3,77.0,29.89,ESE,104,2.0,6.0,73,0.00,,,0.00,81,weatherlink.com 1.10,2013-08-06 21:51:00,
2013-08-06 18:05:00,86.0,76.0,29.89,East,85,2.0,4.0,73,0.00,,,0.00,46,weatherlink.com 1.10,2013-08-06 22:05:00,
2013-08-06 18:21:00,86.1,77.0,29.89,ESE,113,2.0,5.0,73,0.00,,,0.00,47,weatherlink.com 1.10,2013-08-06 22:21:00,
2013-08-06 18:35:00,86.1,77.0,29.90,SW,216,1.0,4.0,73,0.00,,,0.00,28,weatherlink.com 1.10,2013-08-06 22:35:00,
2013-08-06 18:50:00,85.3,76.0,29.91,SW,233,0.0,4.0,74,0.00,,,0.00,25,weatherlink.com 1.10,2013-08-06 22:50:00,
2013-08-06 19:05:00,83.9,75.0,29.91,West,260,0.0,2.0,75,0.00,,,0.00,21,weatherlink.com 1.10,2013-08-06 23:05:00,
2013-08-06 19:20:00,83.4,75.0,29.91,SSW,209,0.0,2.0,75,0.00,,,0.00,49,weatherlink.com 1.10,2013-08-06 23:20:00,
2013-08-06 19:35:00,82.8,74.0,29.92,SW,217,1.0,3.0,74,0.00,,,0.00,19,weatherlink.com 1.10,2013-08-06 23:35:00,
2013-08-06 19:50:00,82.4,73.0,29.93,SW,219,1.0,3.0,73,0.00,,,0.00,5,weatherlink.com 1.10,2013-08-06 23:50:00,
2013-08-06 20:05:00,81.8,73.0,29.93,SW,229,0.0,4.0,74,0.00,,,0.00,0,weatherlink.com 1.10,2013-08-07 00:05:00,
2013-08-06 20:20:00,81.4,73.0,29.93,SW,229,0.0,1.0,76,0.00,,,0.00,0,weatherlink.com 1.10,2013-08-07 00:20:00,
2013-08-06 20:35:00,81.1,73.0,29.93,SW,228,2.0,2.0,77,0.00,,,0.00,0,weatherlink.com 1.10,2013-08-07 00:35:00,
2013-08-06 20:50:00,80.6,74.0,29.93,SW,220,0.0,1.0,79,0.00,,,0.00,0,weatherlink.com 1.10,2013-08-07 00:50:00,
2013-08-06 21:05:00,80.1,73.0,29.92,SW,220,0.0,0.0,80,0.00,,,0.00,0,weatherlink.com 1.10,2013-08-07 01:05:00,
2013-08-06 21:20:00,79.9,74.0,29.93,SW,220,0.0,1.0,81,0.00,,,0.00,0,weatherlink.com 1.10,2013-08-07 01:20:00,
2013-08-06 21:35:00,79.9,74.0,29.93,SW,220,1.0,1.0,83,0.00,,,0.00,0,weatherlink.com 1.10,2013-08-07 01:35:00,
2013-08-06 21:50:00,79.4,74.0,29.94,SSW,202,0.0,0.0,84,0.00,,,0.00,0,weatherlink.com 1.10,2013-08-07 01:50:00,
2013-08-06 22:05:00,79.4,74.0,29.93,SSW,202,0.0,1.0,84,0.00,,,0.00,0,weatherlink.com 1.10,2013-08-07 02:05:00,
2013-08-06 22:20:00,79.0,74.0,29.93,SSW,202,0.0,0.0,84,0.00,,,0.00,0,weatherlink.com 1.10,2013-08-07 02:20:00,
2013-08-06 22:35:00,78.8,74.0,29.94,SSW,202,0.0,1.0,84,0.00,,,0.00,0,weatherlink.com 1.10,2013-08-07 02:35:00,
2013-08-06 23:05:00,78.7,74.0,29.94,SSW,202,0.0,1.0,84,0.00,,,0.00,0,weatherlink.com 1.10,2013-08-07 03:05:00,
2013-08-06 23:20:00,78.7,74.0,29.94,SSW,202,0.0,1.0,85,0.00,,,0.00,0,weatherlink.com 1.10,2013-08-07 03:20:00,
2013-08-06 23:35:00,78.7,74.0,29.94,SSW,202,0.0,0.0,85,0.00,,,0.00,0,weatherlink.com 1.10,2013-08-07 03:35:00,
2013-08-06 23:50:00,78.6,74.0,29.93,SSW,202,0.0,1.0,86,0.00,,,0.00,0,weatherlink.com 1.10,2013-08-07 03:50:00,